| time (UTC) | temp C | wind direction | speed KPH | gust KPH | rain 1hr cm | rain 24hr cm | rain mn cm | humidity % | barometer mb |
| 20260503200033 | 17 | 10 | 4.8 | 12.9 | 0.00 | 0.00 | 0.00 | 65 | 1012.3 |
| 20260503194540 | 16 | 297 | 4.8 | 12.9 | 0.00 | 0.00 | 0.00 | 66 | 1012.4 |
| 20260503193032 | 16 | 320 | 1.6 | 8.0 | 0.00 | 0.00 | 0.00 | 70 | 1012.4 |
| 20260503191530 | 15 | 288 | 3.2 | 11.3 | 0.00 | 0.00 | 0.00 | 71 | 1012.4 |
| 20260503190037 | 15 | 277 | 4.8 | 14.5 | 0.00 | 0.00 | 0.00 | 72 | 1012.4 |
| 20260503184527 | 15 | 294 | 6.4 | 14.5 | 0.00 | 0.00 | 0.00 | 71 | 1012.4 |
| 20260503183024 | 15 | 304 | 3.2 | 12.9 | 0.00 | 0.00 | 0.00 | 72 | 1012.4 |
| 20260503181522 | 15 | 26 | 1.6 | 9.7 | 0.00 | 0.00 | 0.00 | 74 | 1012.3 |
| 20260503180022 | 15 | 308 | 4.8 | 17.7 | 0.00 | 0.00 | 0.00 | 74 | 1012.3 |
| 20260503174520 | 15 | 292 | 0.0 | 4.8 | 0.00 | 0.00 | 0.00 | 74 | 1012.3 |
| 20260503173017 | 14 | 299 | 1.6 | 8.0 | 0.00 | 0.00 | 0.00 | 77 | 1012.4 |
| 20260503171515 | 14 | 141 | 1.6 | 6.4 | 0.00 | 0.00 | 0.00 | 78 | 1012.3 |
| 20260503081536 | 12 | 41 | 0.0 | 3.2 | 0.00 | 0.00 | 0.00 | 85 | 1011.2 |
| 20260503071527 | 12 | 296 | 1.6 | 6.4 | 0.00 | 0.00 | 0.00 | 85 | 1011.2 |
| 20260503054531 | 12 | 55 | 1.6 | 8.0 | 0.00 | 0.00 | 0.00 | 86 | 1011.7 |
| 20260503053035 | 12 | 301 | 1.6 | 4.8 | 0.00 | 0.00 | 0.00 | 86 | 1011.7 |
| 20260503051521 | 12 | 148 | 1.6 | 9.7 | 0.00 | 0.00 | 0.00 | 86 | 1011.7 |
| 20260503050020 | 12 | 325 | 0.0 | 9.7 | 0.00 | 0.00 | 0.00 | 85 | 1011.6 |
| 20260503044520 | 12 | 285 | 1.6 | 6.4 | 0.00 | 0.00 | 0.00 | 85 | 1011.5 |
| 20260503043025 | 12 | 250 | 1.6 | 6.4 | 0.00 | 0.00 | 0.00 | 84 | 1011.6 |
| 20260503041519 | 12 | 302 | 0.0 | 9.7 | 0.00 | 0.00 | 0.00 | 85 | 1011.4 |
| 20260503040031 | 12 | 266 | 1.6 | 4.8 | 0.00 | 0.00 | 0.00 | 84 | 1011.4 |
| 20260503034518 | 12 | 273 | 1.6 | 12.9 | 0.00 | 0.00 | 0.00 | 84 | 1011.2 |
| 20260503033018 | 12 | 322 | 3.2 | 9.7 | 0.00 | 0.00 | 0.00 | 84 | 1011.0 |
| 20260503031517 | 12 | 298 | 3.2 | 11.3 | 0.00 | 0.00 | 0.00 | 84 | 1010.8 |
| 20260503030017 | 12 | 254 | 1.6 | 9.7 | 0.00 | 0.00 | 0.00 | 84 | 1010.6 |
| 20260503024516 | 12 | 290 | 0.0 | 8.0 | 0.00 | 0.00 | 0.00 | 84 | 1010.7 |
| 20260503023016 | 12 | 300 | 3.2 | 16.1 | 0.00 | 0.00 | 0.00 | 83 | 1010.7 |
| 20260503021515 | 12 | 311 | 1.6 | 11.3 | 0.00 | 0.00 | 0.00 | 82 | 1010.7 |
| 20260503020014 | 13 | 111 | 1.6 | 6.4 | 0.00 | 0.00 | 0.00 | 81 | 1010.7 |
| 20260503014514 | 13 | 238 | 3.2 | 11.3 | 0.00 | 0.00 | 0.00 | 81 | 1010.9 |
| 20260503013015 | 13 | 346 | 3.2 | 11.3 | 0.00 | 0.00 | 0.00 | 80 | 1010.9 |
| 20260503011516 | 13 | 319 | 8.0 | 29.0 | 0.00 | 0.00 | 0.00 | 78 | 1011.0 |
| 20260503010010 | 13 | 259 | 1.6 | 12.9 | 0.00 | 0.00 | 0.00 | 79 | 1011.0 |
| 20260503004510 | 13 | 316 | 3.2 | 19.3 | 0.00 | 0.00 | 0.00 | 78 | 1011.1 |
| 20260503003009 | 14 | 299 | 4.8 | 11.3 | 0.00 | 0.00 | 0.00 | 77 | 1011.0 |
| 20260503001509 | 14 | 298 | 4.8 | 25.7 | 0.00 | 0.00 | 0.00 | 76 | 1011.0 |
| 20260503000009 | 15 | 308 | 4.8 | 17.7 | 0.00 | 0.00 | 0.00 | 73 | 1011.0 |
| 20260502234517 | 15 | 294 | 8.0 | 19.3 | 0.00 | 0.00 | 0.00 | 72 | 1011.1 |
| 20260502233007 | 16 | 267 | 3.2 | 16.1 | 0.00 | 0.00 | 0.00 | 72 | 1011.0 |
| 20260502231505 | 17 | 266 | 3.2 | 14.5 | 0.00 | 0.00 | 0.00 | 70 | 1011.1 |
| 20260502230004 | 17 | 1 | 1.6 | 19.3 | 0.00 | 0.00 | 0.00 | 70 | 1011.3 |
| 20260502224504 | 16 | 230 | 4.8 | 11.3 | 0.00 | 0.00 | 0.00 | 71 | 1011.5 |
| 20260502223003 | 16 | 257 | 1.6 | 16.1 | 0.00 | 0.00 | 0.00 | 74 | 1011.8 |
| 20260502221502 | 17 | 311 | 6.4 | 20.9 | 0.00 | 0.00 | 0.00 | 70 | 1011.9 |
| 20260502220002 | 17 | 293 | 6.4 | 17.7 | 0.00 | 0.00 | 0.00 | 71 | 1012.1 |
| 20260502214504 | 16 | 295 | 1.6 | 19.3 | 0.00 | 0.00 | 0.00 | 74 | 1012.0 |
| 20260502213002 | 16 | 328 | 4.8 | 19.3 | 0.00 | 0.00 | 0.00 | 74 | 1012.1 |
| 20260502211600 | 16 | 6 | 4.8 | 17.7 | 0.00 | 0.00 | 0.00 | 75 | 1012.2 |
| 20260502210100 | 16 | 283 | 4.8 | 16.1 | 0.00 | 0.00 | 0.00 | 76 | 1012.4 |
| 20260502210002 | 16 | 33 | 4.8 | 16.1 | 0.00 | 0.00 | 0.00 | 75 | 1012.4 |
| 20260502204618 | 16 | 205 | 3.2 | 14.5 | 0.00 | 0.00 | 0.00 | 74 | 1012.4 |
| 20260502203059 | 16 | 205 | 3.2 | 16.1 | 0.00 | 0.00 | 0.00 | 76 | 1012.6 |
| 20260502201558 | 16 | 321 | 1.6 | 20.9 | 0.00 | 0.00 | 0.00 | 78 | 1012.6 |